Date,TemperatureHighF,TemperatureAvgF,TemperatureLowF,DewpointHighF,DewpointAvgF,DewpointLowF,HumidityHigh,HumidityAvg,HumidityLow,PressureMaxIn,PressureMinIn,WindSpeedMaxMPH,WindSpeedAvgMPH,GustSpeedMaxMPH,PrecipitationSumIn
2013-8-1,84,76,71,76,72,68,95,90,73,30.01,29.92,5,1,10,0.21
2013-8-2,90,78,67,76,71,65,96,81,58,30.06,29.95,5,0,6,0.00
2013-8-3,86,78,70,75,71,68,96,81,55,30.05,29.98,12,2,16,0.00
2013-8-4,91,79,69,75,71,65,93,78,57,30.05,29.96,5,1,12,0.00
2013-8-5,85,75,67,73,68,64,92,81,65,30.10,29.99,8,1,10,0.00
2013-8-6,85,76,70,76,72,68,96,88,72,30.08,29.98,8,1,13,1.40
2013-8-7,78,74,72,75,72,70,96,94,91,30.10,30.03,5,1,10,0.64
2013-8-8,82,76,71,77,73,70,97,89,78,30.10,30.04,8,1,13,0.00
2013-8-9,88,77,72,77,74,71,96,89,68,30.11,30.04,12,1,16,0.18
2013-8-10,89,79,72,79,75,70,97,88,70,30.14,30.08,10,2,17,0.36
2013-8-11,89,76,69,76,72,68,97,88,62,30.16,30.08,8,1,13,0.40
2013-8-12,92,78,70,79,73,68,96,86,64,30.11,29.98,6,1,12,0.21
2013-8-13,88,78,72,77,73,70,96,86,69,30.00,29.84,12,4,16,0.00
2013-8-14,83,74,69,72,68,64,93,83,66,30.09,29.89,5,1,10,0.00
2013-8-15,73,68,63,65,62,59,91,83,67,30.17,30.08,12,2,16,0.00
2013-8-16,73,65,61,65,62,60,95,88,76,30.20,30.12,12,2,16,0.30
2013-8-17,69,65,63,64,62,60,96,91,81,30.22,30.16,14,2,16,0.15
2013-8-18,77,69,64,72,67,63,97,93,82,30.26,30.18,3,0,6,0.41
2013-8-19,79,71,67,72,68,66,97,93,80,30.23,30.12,6,1,9,1.14
2013-8-20,81,72,67,74,70,66,97,91,75,30.23,30.14,3,0,4,0.02
2013-8-21,82,73,70,76,71,69,97,93,79,30.27,30.15,6,0,6,0.77
2013-8-22,89,75,68,77,71,68,97,89,63,30.19,30.06,5,1,16,0.70
2013-8-23,92,76,67,76,70,66,97,85,53,30.09,29.99,12,1,20,0.02
2013-8-24,82,72,63,69,65,61,96,81,58,30.32,30.09,14,3,17,0.00
2013-8-25,82,69,60,66,62,58,94,79,53,30.42,30.31,13,1,13,0.00
2013-8-26,87,71,58,70,63,56,95,79,52,30.36,30.17,5,1,8,0.00
2013-8-27,91,78,66,74,68,62,91,72,49,30.20,30.03,5,1,9,0.00
2013-8-28,92,80,68,76,71,65,89,75,55,30.06,29.96,8,1,10,0.00
2013-8-29,95,80,69,80,72,66,92,78,57,29.99,29.91,6,1,12,0.00
2013-8-30,87,78,73,75,71,68,88,80,66,30.07,29.96,4,1,14,0.00
2013-8-31,87,76,70,77,71,67,93,84,67,29.99,29.91,8,1,14,0.14